Location: ????????
(48.4751°N, 37.6926°E)
Time: 17:53:29
(UTC+00:00)

MOS 1 Rocket - Visible Passes

Search period start: 14 May 2021 00:00
Search period end: 24 May 2021 00:00
Orbit: 614 x 830 km, 97.4° (Epoch: 13 May)

Date Brightness Start Highest point End Pass type
(mag) Time Alt. Az. Time Alt. Az. Time Alt. Az.
15 May 6.4 00:40:25 10° ESE 00:43:46 19° ENE 00:47:01 10° NNE visible
17 May 6.4 00:40:05 10° ESE 00:43:23 18° ENE 00:46:34 10° NNE visible
19 May 6.3 00:39:46 10° ESE 00:43:00 18° ENE 00:46:07 10° NNE visible
21 May 6.3 00:39:26 10° ESE 00:42:36 18° ENE 00:45:41 10° NNE visible
23 May 6.3 00:39:06 10° ESE 00:42:13 18° ENE 00:45:14 10° NNE visible
